Simultaneous Nadir Overpasses (SNOs) Predictions

Prediction of SNOs between TERRA and METOP-C Satellite Orbit:

Table of predicted SNOs for the next 14.0 days since TLE Epoch: 9/3/2022
Index Date (TERRA) Time (TERRA) Lat,Lon (TERRA) SZA (TERRA ) Date (METOP-C) Time (METOP-C) Lat,Lon (METOP-C) SZA (METOP-C ) Distance(km) Time Diff (sec)
1 09/05/2022 00:47:09 -81.14, 27.94 103.66 09/05/2022 00:46:15 -81.15, 28.06 103.67 2.18 54
2 09/05/2022 01:36:34 81.17,-164.03 76.41 09/05/2022 01:36:55 81.17,-163.98 76.43 0.74 21
3 09/07/2022 20:21:18 -81.14, 94.34 102.60 09/07/2022 20:20:35 -81.14, 94.26 102.63 1.28 43
4 09/07/2022 21:10:43 81.16, -97.66 77.47 09/07/2022 21:11:15 81.16, -97.83 77.46 2.84 32
5 09/10/2022 15:55:27 -81.15, 161.02 101.49 09/10/2022 15:54:54 -81.16, 161.20 101.48 3.05 33
6 09/10/2022 16:44:52 81.18, -31.00 78.58 09/10/2022 16:45:34 81.17, -30.93 78.61 1.21 42
7 09/13/2022 11:29:37 -81.14,-132.73 100.43 09/13/2022 11:29:15 -81.15,-132.64 100.42 1.80 22
8 09/13/2022 12:19:02 81.16, 35.22 79.64 09/13/2022 12:19:55 81.16, 35.18 79.66 0.75 53
9 09/16/2022 07:03:45 -81.15, -66.20 99.31 09/16/2022 07:03:34 -81.15, -66.12 99.30 1.53 11



Historial Predications of SNOs between TERRA and METOP-C
